EDT,Max TemperatureF,Mean TemperatureF,Min TemperatureF,Max Dew PointF,MeanDew PointF,Min DewpointF,Max Humidity, Mean Humidity, Min Humidity, Max Sea Level PressureIn, Mean Sea Level PressureIn, Min Sea Level PressureIn, Max VisibilityMiles, Mean VisibilityMiles, Min VisibilityMiles, Max Wind SpeedMPH, Mean Wind SpeedMPH, Max Gust SpeedMPH,PrecipitationIn, CloudCover, Events, WindDirDegrees
2014-5-1,78,70,62,68,60,50,100,75,36,29.92,29.86,29.79,10,10,7,20,9,32,0.00,4,Rain,218
2014-5-2,68,56,44,57,42,34,100,61,33,29.97,29.92,29.85,10,10,10,10,2,18,0.00,0,,237
2014-5-3,73,60,48,52,44,37,100,61,27,29.93,29.90,29.86,10,9,2,14,2,24,0.00,2,,263
2014-5-4,82,63,44,54,46,37,100,58,25,30.02,29.93,29.82,10,10,10,16,3,23,0.00,0,,266
2014-5-5,68,59,50,54,50,46,100,74,52,30.07,29.98,29.89,10,10,2,10,3,,0.00,0,,91
2014-5-6,78,66,53,61,56,50,100,75,47,30.03,29.96,29.90,10,8,2,10,4,,0.00,2,,65
2014-5-7,71,63,55,63,59,55,100,86,69,30.18,30.13,30.03,10,9,1,7,4,,0.00,3,,107
2014-5-8,87,69,51,64,54,45,100,67,22,30.20,30.14,30.09,10,7,0,15,2,20,0.00,1,Fog,238
2014-5-9,86,70,55,64,58,55,100,68,35,30.17,30.12,30.04,10,10,10,18,4,37,0.01,2,Rain,236
2014-5-10,82,71,60,66,61,59,100,78,51,30.14,30.09,30.01,10,10,5,15,6,30,0.15,3,Rain,224
2014-5-11,80,68,55,64,58,54,100,77,39,30.19,30.14,30.07,10,8,0,8,1,,0.00,0,Fog,343
2014-5-12,87,70,53,64,59,54,100,73,33,30.22,30.17,30.13,10,8,0,10,1,,0.00,0,Fog,202
2014-5-13,87,73,59,68,63,59,100,74,40,30.18,30.14,30.10,10,9,0,9,1,,0.00,1,Fog,218
2014-5-14,86,76,66,68,64,59,100,70,42,30.19,30.14,30.08,10,10,7,13,3,17,0.00,2,,189
2014-5-15,73,68,64,70,66,61,100,93,69,30.14,30.02,29.86,10,8,1,17,6,28,2.67,6,Rain,156
2014-5-16,69,60,51,68,50,43,100,70,40,30.05,29.93,29.84,10,10,4,13,6,24,0.21,4,Rain,287
2014-5-17,68,56,44,52,41,36,88,57,35,30.20,30.15,30.06,10,10,10,13,6,17,0.00,2,,288
2014-5-18,64,55,46,50,44,39,100,64,40,30.27,30.23,30.19,10,10,2,8,1,,0.00,4,,20
2014-5-19,69,55,41,52,43,36,100,71,28,30.34,30.28,30.24,10,9,1,7,1,,0.00,1,,101
2014-5-20,77,60,44,57,51,45,100,70,39,30.30,30.20,30.10,10,10,7,14,3,22,0.00,1,,236
2014-5-21,84,72,60,63,60,55,100,69,42,30.10,30.03,29.96,10,10,10,12,5,18,0.00,1,,241
2014-5-22,86,73,60,63,60,55,100,65,35,29.97,29.94,29.89,10,9,1,10,3,17,0.00,1,,280
2014-5-23,78,68,57,63,58,45,100,70,44,30.06,29.99,29.94,10,10,5,9,2,9,0.00,0,Rain,303
2014-5-24,77,62,48,55,48,45,100,62,32,30.17,30.11,30.05,10,10,10,8,2,,0.00,0,,3
2014-5-25,77,64,51,61,55,52,100,75,41,30.23,30.18,30.15,10,10,5,8,1,,0.00,2,,220
2014-5-26,82,68,53,68,61,54,100,77,51,30.23,30.16,30.08,10,10,3,13,3,20,0.08,2,Rain,216
2014-5-27,86,74,62,70,67,63,100,87,48,30.12,30.06,29.99,10,8,2,15,2,21,0.05,1,Rain,248
2014-5-28,86,74,62,70,66,63,100,76,48,30.04,30.00,29.96,10,10,5,9,3,,0.00,0,,278
2014-5-29,71,66,62,66,64,63,100,92,78,30.16,30.10,30.02,10,10,4,10,5,,0.00,7,,73
2014-5-30,71,66,60,68,65,61,100,96,78,30.19,30.12,30.08,10,8,2,8,1,,0.09,6,Rain,87
2014-5-31,78,68,57,66,58,52,100,74,41,30.26,30.19,30.15,10,8,0,10,3,10,0.00,4,Fog,51